Tracking 35048 objects as of 19-Aug-2026
HD Live streaming from Space Station
objects crossing your sky now

SBS 6

Track SBS 6 now!
SBS 6 is classified as:


NORAD ID: 20872
Int'l Code: 1990-091A
Launch date: October 12, 1990
Source: United States (US)
Launch site: FRENCH GUIANA (FRGUI)
Your satellite tracking list
Your tracking list is empty




NASA's NSSDC Master Catalog

Two Line Element Set (TLE):
1 20872U 90091A   26230.70225968 -.00000193  00000-0  00000-0 0  9994
2 20872  12.7309  28.3049 0007890 147.7757  44.1619  0.98995028 46714
Source of the keplerian elements: AFSPC